TimeEDT,TemperatureF,Dew PointF,Humidity,Sea Level PressureIn,VisibilityMPH,Wind Direction,Wind SpeedMPH,Gust SpeedMPH,PrecipitationIn,Events,Conditions,WindDirDegrees,DateUTC
12:54 AM,81.0,75.9,85,29.63,8.0,SSW,6.9,-,N/A,,Clear,210,2013-06-29 04:54:00
1:54 AM,79.0,75.0,88,29.64,8.0,Calm,Calm,-,N/A,,Partly Cloudy,0,2013-06-29 05:54:00
2:26 AM,78.8,75.2,89,29.64,7.0,Calm,Calm,-,N/A,,Mostly Cloudy,0,2013-06-29 06:26:00
2:54 AM,79.0,75.9,90,29.62,7.0,South,3.5,-,N/A,,Overcast,190,2013-06-29 06:54:00
3:04 AM,78.8,75.2,89,29.63,7.0,South,3.5,-,N/A,,Overcast,180,2013-06-29 07:04:00
3:54 AM,78.1,75.0,90,29.63,7.0,SSW,5.8,-,N/A,,Overcast,210,2013-06-29 07:54:00
4:54 AM,78.1,73.0,84,29.65,9.0,SSW,9.2,-,N/A,,Mostly Cloudy,210,2013-06-29 08:54:00
5:05 AM,77.0,71.6,83,29.65,10.0,SW,8.1,-,N/A,,Mostly Cloudy,220,2013-06-29 09:05:00
5:15 AM,77.0,71.6,83,29.65,10.0,SW,9.2,-,N/A,,Mostly Cloudy,220,2013-06-29 09:15:00
5:27 AM,77.0,71.6,83,29.65,10.0,SSW,9.2,-,N/A,,Mostly Cloudy,210,2013-06-29 09:27:00
5:54 AM,77.0,70.0,79,29.66,10.0,SW,8.1,-,N/A,,Scattered Clouds,220,2013-06-29 09:54:00
6:54 AM,75.9,70.0,82,29.67,10.0,SSW,8.1,-,N/A,,Scattered Clouds,210,2013-06-29 10:54:00
7:54 AM,75.9,70.0,82,29.69,10.0,WSW,11.5,-,N/A,,Overcast,240,2013-06-29 11:54:00
8:25 AM,75.2,71.6,89,29.70,10.0,SW,10.4,-,N/A,,Overcast,220,2013-06-29 12:25:00
8:39 AM,77.0,69.8,78,29.70,10.0,SW,11.5,20.7,N/A,,Overcast,220,2013-06-29 12:39:00
8:54 AM,77.0,70.0,79,29.70,10.0,SW,12.7,18.4,N/A,,Overcast,220,2013-06-29 12:54:00
9:05 AM,77.0,69.8,78,29.70,10.0,SSW,11.5,21.9,N/A,,Overcast,210,2013-06-29 13:05:00
9:45 AM,78.8,71.6,78,29.70,10.0,SW,10.4,-,N/A,,Mostly Cloudy,230,2013-06-29 13:45:00
9:54 AM,79.0,71.1,77,29.69,10.0,WSW,9.2,-,N/A,,Mostly Cloudy,250,2013-06-29 13:54:00
10:25 AM,78.8,71.6,78,29.69,10.0,SW,12.7,-,N/A,,Overcast,220,2013-06-29 14:25:00
10:54 AM,79.0,71.1,77,29.69,7.0,WSW,10.4,-,N/A,,Overcast,250,2013-06-29 14:54:00
11:54 AM,81.0,71.1,72,29.69,10.0,WSW,8.1,-,N/A,,Mostly Cloudy,250,2013-06-29 15:54:00
12:40 PM,82.4,71.6,70,29.70,10.0,SW,6.9,-,N/A,,Overcast,220,2013-06-29 16:40:00
12:54 PM,82.9,71.1,67,29.70,10.0,SSW,8.1,-,N/A,,Overcast,200,2013-06-29 16:54:00
1:54 PM,84.0,72.0,67,29.69,10.0,SW,9.2,-,N/A,,Overcast,220,2013-06-29 17:54:00
2:54 PM,84.9,71.1,63,29.68,10.0,SSW,8.1,-,N/A,,Mostly Cloudy,200,2013-06-29 18:54:00
3:54 PM,87.1,70.0,57,29.68,10.0,SSW,9.2,-,N/A,,Scattered Clouds,200,2013-06-29 19:54:00
4:54 PM,86.0,71.1,61,29.68,10.0,SSW,6.9,-,N/A,,Partly Cloudy,210,2013-06-29 20:54:00
5:54 PM,86.0,70.0,59,29.67,10.0,SSW,4.6,-,N/A,,Clear,200,2013-06-29 21:54:00
6:54 PM,81.0,73.0,77,29.69,9.0,SSE,9.2,-,N/A,,Clear,160,2013-06-29 22:54:00
7:54 PM,79.0,73.0,82,29.70,10.0,SSE,8.1,-,N/A,,Clear,160,2013-06-29 23:54:00
8:54 PM,78.1,73.0,84,29.71,10.0,SSE,6.9,-,N/A,,Scattered Clouds,160,2013-06-30 00:54:00
9:54 PM,77.0,72.0,84,29.73,10.0,Calm,Calm,-,N/A,,Mostly Cloudy,0,2013-06-30 01:54:00
10:54 PM,77.0,72.0,84,29.75,10.0,South,3.5,-,0.00,,Overcast,170,2013-06-30 02:54:00
11:54 PM,75.9,73.0,91,29.75,9.0,SSE,6.9,-,0.00,,Overcast,160,2013-06-30 03:54:00